EHI
28 37 47 49 46 43 39 36 35 31 23 15 10 7 5 4 4 4 4 4 5 6 8 9 8 5 4 3 2 1 0 0 0 0 0 0 0 0 0 0 0 0 0
35 44 51 53 51 46 41 38 36 31 26 19 12 8 5 4 4 5 7 8 8 9 10 11 9 5 3 3 1 0 1 1 1 0 0 0 0 0 0 0 0 0 0
43 48 54 56 56 52 46 42 39 35 31 25 18 13 9 5 3 3 6 9 12 12 12 12 9 4 3 2 1 1 3 4 3 1 0 0 0 0 0 0 0 0 0
45 49 53 55 57 56 52 47 44 40 36 32 28 23 16 8 3 1 3 7 11 12 13 11 8 4 1 1 1 3 4 6 5 3 1 0 0 0 0 0 0 0 0
46 50 53 54 56 59 57 54 50 46 42 38 35 31 22 13 7 5 4 6 8 11 12 11 8 4 2 1 2 4 5 6 7 5 3 1 0 0 0 0 0 0 0
49 53 53 52 55 61 63 62 59 53 47 43 39 35 26 18 13 11 9 8 9 10 10 9 7 6 4 4 5 6 6 7 8 6 4 3 2 0 0 0 0 0 0
51 52 52 53 57 64 68 68 65 60 54 49 44 38 30 23 18 15 14 13 12 11 9 7 6 6 5 5 6 6 6 7 8 6 5 4 3 1 0 0 0 0 0
49 49 51 55 59 64 68 69 66 63 59 54 49 43 36 27 21 17 15 14 13 12 11 9 7 6 5 5 6 6 6 7 7 5 4 3 2 1 0 0 0 0 0
43 44 49 55 57 61 64 66 65 63 60 56 51 46 41 33 23 17 13 11 10 11 11 10 9 8 8 6 5 5 6 6 6 4 3 2 1 0 0 0 0 0 0
35 39 46 52 55 57 61 63 64 63 59 56 53 50 46 37 25 17 12 9 8 9 8 7 7 8 9 7 5 4 5 6 5 4 2 1 0 0 0 0 0 0 0
33 36 44 51 54 57 61 62 64 65 62 58 56 54 50 40 28 20 14 10 8 6 5 5 5 6 8 8 5 4 4 5 5 4 2 1 0 0 0 0 0 0 0
34 37 44 51 55 56 60 63 65 67 67 63 59 55 49 39 32 25 18 13 9 6 5 5 5 6 8 8 6 5 5 6 6 5 4 1 0 0 0 0 0 0 0
37 39 42 49 52 52 55 60 63 66 67 64 59 54 46 38 33 28 22 17 12 8 7 6 6 6 6 7 7 6 6 6 6 6 5 3 1 0 0 0 0 0 0
40 39 40 45 48 50 51 53 58 64 67 65 60 55 46 39 35 29 23 21 17 13 10 9 8 7 6 5 6 6 6 6 6 6 6 5 3 1 0 0 0 0 0
38 37 38 42 47 49 49 49 53 62 67 66 62 55 47 41 36 30 24 23 20 16 12 11 11 10 7 4 4 5 6 5 4 4 4 4 3 1 0 0 0 0 0
33 33 36 43 47 49 50 50 52 58 65 66 61 54 49 44 38 31 25 23 20 15 12 12 12 11 7 4 3 3 4 4 3 3 3 3 1 0 0 0 0 0 0
35 35 41 49 52 51 53 56 57 60 65 65 59 54 50 45 40 34 27 22 19 14 11 12 13 10 5 3 2 2 2 2 2 2 2 1 1 1 1 1 0 0 0
42 43 49 55 56 55 58 61 64 66 68 67 62 57 52 47 43 38 30 23 17 12 10 11 12 9 4 1 1 0 1 1 1 1 1 1 1 2 2 1 1 0 0
49 50 54 56 56 57 60 62 65 68 70 69 64 59 55 50 46 40 31 22 16 12 10 10 9 7 3 1 0 0 0 1 2 1 0 0 1 1 1 1 1 1 1
54 54 53 52 52 53 56 59 62 65 66 65 62 59 56 51 45 37 29 21 16 14 12 9 6 4 2 1 0 0 0 1 2 1 0 0 0 0 0 0 0 0 0
57 55 51 49 48 49 52 54 58 59 57 56 57 56 53 48 40 32 25 21 19 16 13 10 6 3 1 0 0 0 0 1 2 1 0 0 0 0 0 0 0 0 0
53 50 47 46 46 47 49 51 53 53 50 48 48 47 45 41 33 26 23 22 21 18 15 11 6 3 1 0 0 0 0 0 1 1 0 0 0 0 0 0 0 0 0
44 42 41 43 43 44 47 49 49 49 48 44 40 37 34 31 27 23 20 20 21 20 16 11 6 3 1 0 0 0 0 0 0 0 0 0 0 0 0 0 0 0 0
36 35 36 38 39 40 43 46 46 46 46 41 34 29 26 24 22 19 17 16 18 18 15 10 6 4 2 0 0 0 0 0 0 0 0 0 0 0 0 0 0 0 0
30 30 31 32 32 34 38 40 41 42 41 35 29 25 21 19 18 15 12 11 13 13 10 7 5 4 3 1 0 0 0 0 0 0 0 0 0 0 0 0 0 0 0
28 28 27 27 28 31 34 36 36 38 36 31 26 22 18 17 15 12 9 7 8 8 7 5 4 3 2 1 0 0 0 0 0 0 0 0 0 0 0 0 0 0 0
Wind_Speed
10 10 11 11 10 8 8 8 7 6 4 3 3 2 2 2 2 3 5 5 5 5 5 3 3 3 3 4 4 3 3 2 1 0 2 3 3 3 4 4 4 6 7
9 10 10 10 10 10 9 8 8 7 6 4 3 3 3 2 2 2 3 5 5 5 5 5 4 4 3 3 3 3 2 2 2 3 1 2 3 3 3 3 4 5 5
14 13 12 11 11 11 11 9 8 7 6 5 3 2 1 0 0 1 2 3 4 4 4 5 4 4 4 4 4 4 4 3 2 3 3 3 3 3 3 3 4 3 3
13 13 13 12 12 12 10 9 8 7 6 6 5 5 4 3 3 2 2 3 3 4 4 5 5 4 3 4 4 4 3 3 3 2 3 3 4 2 3 3 2 3 4
15 15 14 13 12 11 10 9 8 7 7 6 6 5 4 3 2 2 2 2 2 3 3 4 4 4 4 4 4 3 4 3 4 3 2 2 2 3 3 4 3 2 3
14 13 12 10 9 9 9 9 9 8 7 7 6 6 5 4 3 3 3 2 1 2 2 3 3 4 3 4 4 4 4 4 4 3 3 3 3 3 3 4 4 3 3
13 12 12 11 10 11 11 10 10 9 8 8 7 6 6 6 5 4 4 3 2 2 3 3 3 3 3 4 4 4 4 4 4 4 4 4 4 3 3 3 3 3 3
12 13 13 13 13 12 11 10 10 9 8 8 7 6 6 4 4 4 3 4 3 3 3 3 3 4 4 4 3 3 4 4 4 5 4 4 4 3 3 3 3 2 2
13 13 13 12 12 12 12 12 11 9 9 9 7 6 6 5 5 4 4 3 3 2 3 3 3 3 3 3 3 3 4 3 4 4 4 4 3 3 3 3 4 4 3
11 11 11 12 11 11 10 10 11 10 9 8 7 7 6 6 5 4 4 4 3 2 2 2 2 2 3 3 3 3 3 3 4 3 3 3 3 2 2 2 2 3 4
11 11 10 10 9 8 9 10 10 9 8 8 7 6 6 5 5 4 4 4 3 3 3 2 2 2 2 2 2 2 3 3 3 3 3 3 3 2 2 2 2 2 2
12 11 10 9 8 8 9 9 9 9 9 8 7 6 6 5 5 5 5 4 4 3 3 2 1 1 1 1 1 2 2 2 2 2 2 2 2 2 2 1 2 2 3
9 8 9 9 9 8 8 9 9 10 9 8 7 7 6 6 6 6 5 4 4 3 2 2 2 1 1 1 1 1 1 1 1 1 1 1 1 2 2 2 2 2 2
10 9 8 8 8 8 8 8 9 9 9 9 8 8 8 7 6 5 5 4 4 4 3 3 2 1 0 0 1 1 1 1 1 1 1 1 1 2 2 2 2 2 1
8 9 7 6 7 6 5 6 7 8 9 9 8 8 7 6 6 5 4 4 4 4 3 3 2 1 1 0 1 1 1 1 1 1 0 1 0 1 1 1 1 1 1
9 10 10 9 9 9 8 7 7 8 8 9 9 7 6 6 6 5 5 4 4 3 3 3 2 1 0 1 1 0 1 1 1 1 1 0 1 2 1 1 0 1 1
8 8 8 9 9 9 8 8 8 8 8 8 7 7 7 6 5 6 5 5 4 4 4 3 2 1 0 1 1 1 0 0 1 1 1 1 1 1 1 1 1 2 1
7 7 7 6 6 6 6 6 7 8 8 8 7 7 7 6 4 4 5 5 4 4 4 3 3 2 0 1 1 1 0 0 1 1 1 0 1 2 0 0 1 1 2
6 6 6 5 5 7 7 7 6 7 7 8 8 8 8 7 7 6 4 3 3 3 3 2 3 2 0 1 1 0 1 0 1 1 1 0 0 2 1 1 1 2 2
4 4 4 5 4 4 6 7 6 6 6 7 7 8 8 8 7 6 5 3 3 4 3 3 2 3 1 1 1 1 1 1 0 1 2 2 1 2 1 1 0 1 2
4 5 5 4 3 4 6 6 5 5 5 5 6 6 7 7 6 5 4 4 4 4 4 4 2 2 2 1 1 2 1 1 1 0 1 1 2 2 2 1 0 1 1
4 5 5 4 2 3 5 5 4 3 4 5 5 6 6 5 5 5 4 4 4 4 4 3 2 1 0 1 1 1 1 1 1 1 0 1 1 2 2 1 1 2 2
4 4 5 4 3 2 4 5 3 3 4 5 4 4 5 4 4 5 4 3 3 3 3 2 2 1 0 1 2 0 0 1 1 0 0 1 2 2 2 2 2 2 1
4 4 5 4 2 2 3 4 3 4 6 6 5 5 5 4 4 3 3 3 3 3 3 2 2 1 1 0 1 1 1 1 1 1 1 1 2 2 2 2 2 1 0
3 4 4 4 2 2 4 3 4 5 5 6 5 4 4 5 4 4 2 3 2 3 4 3 3 3 2 2 2 2 1 1 0 1 1 1 1 2 2 2 2 1 1
3 4 3 3 2 3 3 2 3 4 5 5 4 4 4 4 5 5 4 6 4 3 3 3 3 2 2 3 3 3 3 2 2 2 1 1 1 1 1 1 2 1 1
Wind_Direction
179 169 168 166 162 163 164 164 164 176 166 163 171 172 194 201 202 206 201 194 192 186 181 186 184 178 181 197 197 185 194 210 173 127 309 304 272 243 234 221 211 215 215
171 174 171 170 171 173 174 172 172 177 179 181 178 177 177 199 202 212 201 196 193 188 185 183 184 184 185 197 199 187 177 210 177 161 153 316 324 295 247 231 222 222 211
179 180 178 178 176 180 181 181 180 180 184 179 163 155 125 61 194 213 205 205 188 189 189 189 188 190 188 200 205 193 186 207 220 182 162 176 237 289 295 246 229 215 209
180 182 181 182 185 187 183 179 178 178 182 175 171 176 183 195 212 204 203 209 197 195 198 197 194 191 190 200 213 197 189 188 214 227 212 196 181 192 294 307 270 236 223
181 183 185 186 186 182 180 179 175 179 183 181 179 181 191 198 201 194 193 205 209 209 208 200 195 194 197 203 210 200 201 198 202 208 211 217 215 195 200 272 292 293 256
181 182 183 178 178 177 178 176 176 184 183 183 182 186 191 189 185 196 199 210 215 227 226 204 198 200 200 206 210 208 212 215 214 210 201 198 204 205 200 233 253 261 266
176 174 174 176 179 179 179 177 178 184 184 184 188 191 192 189 193 196 198 197 202 217 228 215 203 207 210 215 213 212 220 219 220 220 218 217 221 205 196 213 240 246 263
175 177 179 181 182 180 178 177 181 184 184 186 191 191 188 186 191 194 190 193 198 209 215 210 208 212 213 220 216 222 230 227 230 238 231 229 234 218 205 204 209 242 264
175 178 177 180 180 179 182 181 182 184 186 188 188 189 189 188 192 193 189 192 202 210 210 209 207 215 220 225 219 229 239 234 235 244 243 240 244 235 224 214 200 200 232
172 175 178 177 181 183 180 177 181 185 186 186 189 192 191 190 190 186 188 191 199 205 199 212 212 220 230 233 222 234 244 239 246 242 241 249 252 253 245 233 224 207 207
172 181 177 174 174 171 173 178 183 183 184 186 186 182 180 181 177 178 186 188 195 197 201 212 216 228 242 244 233 242 242 237 248 250 241 248 240 246 248 235 233 227 205
171 174 167 161 163 171 173 178 182 182 183 180 175 175 177 177 178 183 188 186 191 196 194 190 195 216 242 257 253 261 258 242 245 251 242 254 253 243 244 235 244 239 218
163 158 158 163 171 178 178 178 181 183 179 173 173 174 179 181 185 189 188 185 186 188 182 163 172 190 205 260 276 264 267 260 247 244 242 267 257 259 251 240 252 259 256
161 158 162 166 170 180 181 182 185 181 176 174 176 182 188 188 188 186 183 181 176 176 173 163 164 172 178 299 312 301 256 269 276 256 217 234 228 249 260 254 252 250 248
161 163 165 176 173 171 181 195 191 182 176 174 182 189 187 180 174 173 176 174 175 176 162 152 153 154 135 330 305 283 264 261 272 286 251 235 241 256 255 249 246 230 222
176 177 173 182 181 177 184 194 195 184 175 178 185 180 174 174 175 171 164 169 173 163 148 154 155 147 90 331 333 324 280 271 252 272 290 295 24 357 329 308 77 137 198
171 180 180 183 183 180 178 182 185 176 175 180 177 171 167 168 178 171 167 174 178 164 156 163 157 155 290 329 327 317 205 252 274 275 279 325 351 344 335 330 8 9 0
159 163 172 177 175 170 166 165 165 164 166 166 165 162 163 158 157 160 174 176 168 164 166 171 165 160 360 345 329 315 141 95 300 278 229 222 316 330 327 148 8 343 335
163 161 162 161 163 166 165 152 156 159 160 164 169 165 160 155 158 169 171 170 162 157 162 161 157 153 216 347 342 20 122 98 341 349 18 19 289 339 39 89 27 338 328
134 135 124 118 132 157 149 146 152 152 165 174 171 164 160 160 163 167 166 159 152 153 150 140 152 158 151 36 35 107 113 125 23 20 17 16 6 3 46 97 112 316 310
100 108 113 115 143 155 147 147 148 162 173 163 156 158 160 158 156 157 156 150 148 145 146 149 158 159 158 150 119 127 134 167 153 121 344 345 2 18 30 58 27 286 315
97 102 103 101 107 129 134 131 152 167 145 137 141 149 152 152 148 147 151 154 153 153 158 156 155 138 94 43 347 128 134 141 137 171 266 316 340 7 17 18 4 9 29
110 106 105 96 85 100 129 131 146 133 124 122 125 127 132 138 140 143 146 144 147 149 156 159 164 164 59 347 348 35 97 115 110 93 21 323 315 327 338 341 350 15 39
109 100 102 98 91 102 110 126 139 138 136 131 134 133 129 121 116 114 124 134 147 153 153 161 168 171 172 319 338 350 25 55 55 10 340 333 332 340 337 344 352 354 324
118 113 114 116 114 120 114 129 137 132 130 130 131 130 125 127 116 105 101 129 146 172 163 172 169 170 202 238 208 163 152 162 150 58 32 30 29 24 11 1 346 342 347
129 125 128 125 132 135 125 129 139 134 135 135 140 143 136 132 136 131 94 54 72 77 109 146 148 140 150 144 139 126 113 106 108 96 75 51 44 30 2 354 345 342 329